Jacksonville, FL

7:34 PM EDT on August 26, 2016 (GMT -0400)
Craig Municipal

Weather History for KCRG - December, 2012

Change the Weather History Date:

Sunday, December 9, 2012

  Actual Average Record
Temperature  
Mean Temperature 66 °F -  
Max Temperature 75 °F 65 °F 84 °F (2013)
Min Temperature 57 °F 48 °F 34 °F (2010)
Cooling Degree Days 1    
Growing Degree Days 16 (Base 50)    
Moisture  
Dew Point 60 °F    
Average Humidity 89    
Maximum Humidity 94    
Minimum Humidity 73    
Precipitation  
Precipitation 0.01 in - - ()
Sea Level Pressure  
Sea Level Pressure 30.06 in    
Wind  
Wind Speed 1 mph (NNE)    
Max Wind Speed 8 mph    
Max Gust Speed -    
Visibility 4 miles    
Events Fog    
Averages and records for this station are not official NWS values.
T = Trace of Precipitation, MM = Missing Value Source: NWS Daily Summary

Daily Weather History Graph

Daily Weather History Graph

Search for Another Location

Airport or City:

Trip Planner

Search our weather history database for the weather conditions in past years. The results will help you decide how hot, cold, wet, or windy it might be!

Date:

Astronomy

Dec. 09, 2012 Rise Set
Actual Time 7:11 AM EST 5:25 PM EST
Civil Twilight 6:45 AM EST 5:52 PM EST
Nautical Twilight 6:15 AM EST 6:22 PM EST
Astronomical Twilight 5:45 AM EST 6:51 PM EST
Moon 2:55 AM EST (12/9) 2:20 PM EST (12/9)
Length of Visible Light 11h 07m
Length of Day
10h 14m
Waning Crescent, 19% of the Moon is Illuminated
Dec 9
Waning Crescent
Dec 13
New
Dec 20
First Quarter
Dec 28
Full
Jan 4
Last Quarter

Hourly Weather History & Observations

Time (EST) Temp. Dew Point Humidity Pressure Visibility Wind Dir Wind Speed Gust Speed Precip Events Conditions
12:53 AM 59.0 °F 55.9 °F 90% 30.07 in 0.5 mi Calm Calm - N/A Fog Fog
1:04 AM 59.0 °F 55.4 °F 88% 30.06 in 1.0 mi Calm Calm - N/A   Mist
1:25 AM 59.0 °F 55.4 °F 88% 30.07 in 0.5 mi Calm Calm - N/A Fog Fog
1:36 AM 59.0 °F 55.4 °F 88% 30.07 in 1.0 mi Calm Calm - N/A   Mist
1:46 AM 57.2 °F 55.4 °F 94% 30.07 in 2.0 mi Calm Calm - N/A   Overcast
1:53 AM 57.9 °F 55.9 °F 93% 30.06 in 0.5 mi Calm Calm - N/A Fog Fog
2:03 AM 57.2 °F 55.4 °F 94% 30.06 in 0.2 mi Calm Calm - N/A Fog Fog
2:12 AM 57.2 °F 55.4 °F 94% 30.06 in 0.5 mi Calm Calm - N/A Fog Fog
2:25 AM 57.2 °F 55.4 °F 94% 30.06 in 1.0 mi Calm Calm - N/A   Mist
2:31 AM 57.2 °F 55.4 °F 94% 30.06 in 3.0 mi Calm Calm - N/A   Overcast
2:53 AM 57.0 °F 55.0 °F 93% 30.06 in 10.0 mi Calm Calm - N/A   Scattered Clouds
3:20 AM 57.2 °F 55.4 °F 94% 30.06 in 1.8 mi Calm Calm - N/A   Scattered Clouds
3:24 AM 57.2 °F 55.4 °F 94% 30.06 in 0.8 mi Calm Calm - N/A   Mist
3:34 AM 57.2 °F 55.4 °F 94% 30.05 in 0.5 mi Calm Calm - N/A Fog Fog
3:53 AM 57.9 °F 55.0 °F 90% 30.05 in 0.5 mi Calm Calm - N/A Fog Fog
4:00 AM 57.2 °F 55.4 °F 94% 30.05 in 0.8 mi Calm Calm - N/A   Overcast
4:07 AM 57.2 °F 55.4 °F 94% 30.05 in 1.0 mi Calm Calm - N/A   Overcast
4:23 AM 57.2 °F 55.4 °F 94% 30.05 in 3.0 mi Calm Calm - N/A   Mostly Cloudy
4:53 AM 57.0 °F 55.0 °F 93% 30.05 in 10.0 mi Calm Calm - N/A   Partly Cloudy
5:53 AM 57.0 °F 55.0 °F 93% 30.06 in 9.0 mi North 3.5 mph - N/A   Mostly Cloudy
6:53 AM 60.1 °F 57.0 °F 90% 30.07 in 10.0 mi Calm Calm - N/A   Overcast
7:53 AM 61.0 °F 57.9 °F 90% 30.09 in 7.0 mi Calm Calm - N/A   Scattered Clouds
8:53 AM 64.0 °F 61.0 °F 90% 30.11 in 7.0 mi North 4.6 mph - N/A   Scattered Clouds
9:03 AM 64.4 °F 60.8 °F 88% 30.11 in 7.0 mi NNE 4.6 mph - N/A   Mostly Cloudy
9:11 AM 64.4 °F 60.8 °F 88% 30.11 in 2.5 mi NNE 4.6 mph - N/A   Mostly Cloudy
9:53 AM 68.0 °F 63.0 °F 84% 30.12 in 2.5 mi NNE 4.6 mph - N/A   Haze
10:07 AM 68.0 °F 62.6 °F 83% 30.11 in 5.0 mi North 3.5 mph - N/A   Haze
10:53 AM 71.1 °F 64.0 °F 78% 30.10 in 5.0 mi North 4.6 mph - N/A   Haze
11:20 AM 69.8 °F 62.6 °F 78% 30.10 in 8.0 mi NW 4.6 mph - N/A   Overcast
11:53 AM 69.1 °F 63.0 °F 81% 30.09 in 3.0 mi NW 4.6 mph - 0.00 in   Haze
12:12 PM 69.8 °F 62.6 °F 78% 30.08 in 7.0 mi ENE 4.6 mph - N/A   Overcast
12:53 PM 69.1 °F 64.9 °F 87% 30.05 in 5.0 mi North 5.8 mph - 0.01 in   Overcast
1:02 PM 69.8 °F 64.4 °F 83% 30.05 in 7.0 mi North 6.9 mph - N/A   Overcast
1:22 PM 71.6 °F 64.4 °F 78% 30.04 in 10.0 mi North 3.5 mph - N/A   Overcast
1:53 PM 75.0 °F 66.0 °F 73% 30.03 in 10.0 mi NNE 4.6 mph - N/A   Overcast
2:53 PM 75.0 °F 66.9 °F 76% 30.02 in 10.0 mi NW 5.8 mph - N/A   Partly Cloudy
3:53 PM 73.9 °F 66.0 °F 76% 30.02 in 10.0 mi ENE 8.1 mph - N/A   Scattered Clouds
4:01 PM 73.4 °F 64.4 °F 73% 30.02 in 10.0 mi ENE 5.8 mph - N/A   Mostly Cloudy
4:53 PM 71.1 °F 64.9 °F 81% 30.03 in 10.0 mi NE 3.5 mph - N/A   Mostly Cloudy
5:14 PM 69.8 °F 64.4 °F 83% 30.03 in 10.0 mi ENE 5.8 mph - N/A   Scattered Clouds
5:45 PM 66.2 °F 64.4 °F 94% 30.03 in 10.0 mi ENE 4.6 mph - N/A   Partly Cloudy
5:53 PM 66.9 °F 64.0 °F 90% 30.04 in 9.0 mi Calm Calm - N/A   Partly Cloudy
6:12 PM 66.2 °F 64.4 °F 94% 30.04 in 8.0 mi Calm Calm - N/A   Mostly Cloudy
6:53 PM 66.9 °F 63.0 °F 87% 30.05 in 6.0 mi Calm Calm - N/A   Overcast
7:12 PM 66.2 °F 64.4 °F 94% 30.05 in 4.0 mi Calm Calm - N/A   Overcast
7:22 PM 66.2 °F 64.4 °F 94% 30.05 in 1.5 mi Calm Calm - N/A   Overcast
7:29 PM 66.2 °F 64.4 °F 94% 30.05 in 0.5 mi Calm Calm - N/A Fog Fog
7:42 PM 66.2 °F 64.4 °F 94% 30.05 in 0.2 mi Calm Calm - N/A Fog Fog
7:53 PM 66.0 °F 64.0 °F 93% 30.05 in 0.2 mi Calm Calm - N/A Fog Fog
8:53 PM 64.9 °F 63.0 °F 93% 30.05 in 0.2 mi Calm Calm - N/A Fog Fog
9:53 PM 64.9 °F 63.0 °F 93% 30.04 in 0.2 mi South 3.5 mph - N/A Fog Fog
10:53 PM 64.0 °F 62.1 °F 93% 30.04 in 0.2 mi Calm Calm - N/A Fog Fog
11:53 PM 63.0 °F 61.0 °F 93% 30.02 in 0.2 mi Calm Calm - N/A Fog Fog